Find Starlink 33535

NORAD ID: 63417 Int'l Des: 2025-065 Owner: SPXS Country: US Constellation: starlink operational
LEOCIRCULAR

現在のビュー

3D地球を読み込み中...

About Starlink 33535

Starlink 33535 (NORAD 63417) is a starlink constellation satellite (v2 mini) launched Mar 31, 2025 by SPXS of US. It operates in LEO, CIRCULAR orbit with a mass of 575.00 kg.

Starlink 33535について

説明を読み込み中...

次回通過

Passes for default location (London). Set your location on the main map for personalized predictions.

高度履歴

Loading altitude history...

軌道要素

1 63417U 25065U 26167.96822889 .00020606 00000-0 75583-3 0 9998
2 63417 42.9955 266.3038 0002210 276.7458 83.3142 15.27597069 68027
Epoch: Jun 16, 2026 • Age: 30 hours

現在のステータス

高度 482.5 km
速度 7.63 km/s
衛星直下点 -2.74°S, 85.63°W
打ち上げ日 Mar 31, 2025
運用期間 1.2 years
タイプ internet

技術仕様

分類 Payload
質量 575.00 kg
乾燥質量 530.00 kg
総質量 575.00 kg
長さ 0.30 m
直径 4.10 m
スパン 29.00 m
形状 Box + pan
製造者 SPXS
バスタイプ Starlink V2MO
フェーズステータス In Orbit
所有者/国 SPXS/US

Most Searched